Time,TemperatureF,DewpointF,PressureIn,WindDirection,WindDirectionDegrees,WindSpeedMPH,WindSpeedGustMPH,Humidity,HourlyPrecipIn,Conditions,Clouds,dailyrainin,SoftwareType,DateUTC
2013-05-12 00:03:00,-999.0,-99.9,29.79,East,86,1.0,0.0,89,-99.99,,,-99.99,,2013-05-12 04:03:00,
2013-05-12 00:12:00,61.0,58.0,29.79,East,86,1.0,0.0,89,-99.99,,,-99.99,,2013-05-12 04:12:00,
2013-05-12 00:22:00,61.0,57.0,29.80,ESE,106,1.0,0.0,86,-99.99,,,-99.99,,2013-05-12 04:22:00,
2013-05-12 00:33:00,61.0,57.0,29.80,ESE,106,1.0,0.0,86,-99.99,,,-99.99,,2013-05-12 04:33:00,
2013-05-12 00:43:00,61.0,57.0,29.80,ESE,106,1.0,0.0,86,-99.99,,,-99.99,,2013-05-12 04:43:00,
2013-05-12 00:52:00,61.0,55.0,29.79,East,80,2.0,0.0,80,-99.99,,,-99.99,,2013-05-12 04:52:00,
2013-05-12 01:02:00,60.0,54.0,29.79,East,83,0.0,0.0,80,-99.99,,,-99.99,,2013-05-12 05:02:00,
2013-05-12 01:12:00,60.0,54.0,29.79,East,83,0.0,0.0,80,-99.99,,,-99.99,,2013-05-12 05:12:00,
2013-05-12 01:22:00,60.0,54.0,29.79,NNE,28,2.0,0.0,81,-99.99,,,-99.99,,2013-05-12 05:22:00,
2013-05-12 01:32:00,59.0,53.0,29.80,SE,124,1.0,0.0,80,-99.99,,,-99.99,,2013-05-12 05:32:00,
2013-05-12 01:42:00,59.0,53.0,29.80,SE,124,1.0,0.0,80,-99.99,,,-99.99,,2013-05-12 05:42:00,
2013-05-12 01:51:00,59.0,53.0,29.80,NE,49,1.0,0.0,81,-99.99,,,-99.99,,2013-05-12 05:51:00,
2013-05-12 02:02:00,59.0,53.0,29.80,NE,49,1.0,0.0,81,-99.99,,,-99.99,,2013-05-12 06:02:00,
2013-05-12 02:11:00,59.0,53.0,29.80,NE,49,1.0,0.0,81,-99.99,,,-99.99,,2013-05-12 06:11:00,
2013-05-12 02:21:00,58.0,52.0,29.80,NE,39,2.0,0.0,80,-99.99,,,-99.99,,2013-05-12 06:21:00,
2013-05-12 02:32:00,58.0,52.0,29.80,ESE,117,2.0,0.0,79,-99.99,,,-99.99,,2013-05-12 06:32:00,
2013-05-12 02:42:00,58.0,52.0,29.80,ESE,117,2.0,0.0,79,-99.99,,,-99.99,,2013-05-12 06:42:00,
2013-05-12 02:52:00,58.0,51.0,29.81,East,90,2.0,0.0,78,-99.99,,,-99.99,,2013-05-12 06:52:00,
2013-05-12 03:01:00,57.0,50.0,29.81,SSE,150,2.0,0.0,78,-99.99,,,-99.99,,2013-05-12 07:01:00,
2013-05-12 03:11:00,57.0,50.0,29.81,SSE,150,2.0,0.0,78,-99.99,,,-99.99,,2013-05-12 07:11:00,
2013-05-12 03:22:00,56.0,49.0,29.80,NE,54,1.0,0.0,78,-99.99,,,-99.99,,2013-05-12 07:22:00,
2013-05-12 03:32:00,57.0,48.0,29.81,NE,50,2.0,0.0,73,-99.99,,,-99.99,,2013-05-12 07:32:00,
2013-05-12 03:42:00,57.0,48.0,29.81,NE,50,2.0,0.0,73,-99.99,,,-99.99,,2013-05-12 07:42:00,
2013-05-12 03:52:00,56.0,49.0,29.81,ENE,77,1.0,0.0,76,-99.99,,,-99.99,,2013-05-12 07:52:00,
2013-05-12 04:02:00,56.0,49.0,29.81,ENE,77,1.0,0.0,76,-99.99,,,-99.99,,2013-05-12 08:02:00,
2013-05-12 04:11:00,56.0,49.0,29.81,ENE,77,1.0,0.0,76,-99.99,,,-99.99,,2013-05-12 08:11:00,
2013-05-12 04:21:00,55.0,48.0,29.82,ENE,61,0.0,0.0,78,-99.99,,,-99.99,,2013-05-12 08:21:00,
2013-05-12 04:32:00,55.0,48.0,29.82,ENE,61,0.0,0.0,78,-99.99,,,-99.99,,2013-05-12 08:32:00,
2013-05-12 04:42:00,55.0,48.0,29.82,ENE,61,0.0,0.0,78,-99.99,,,-99.99,,2013-05-12 08:42:00,
2013-05-12 04:53:00,54.0,47.0,29.82,ENE,61,1.0,0.0,78,-99.99,,,-99.99,,2013-05-12 08:53:00,
2013-05-12 05:01:00,54.0,47.0,29.81,ENE,73,1.0,0.0,78,-99.99,,,-99.99,,2013-05-12 09:01:00,
2013-05-12 05:11:00,54.0,47.0,29.81,ENE,73,1.0,0.0,78,-99.99,,,-99.99,,2013-05-12 09:11:00,
2013-05-12 05:21:00,54.0,48.0,29.80,WSW,240,1.0,0.0,79,-99.99,,,-99.99,,2013-05-12 09:21:00,
2013-05-12 05:33:00,54.0,48.0,29.80,WSW,240,1.0,0.0,79,-99.99,,,-99.99,,2013-05-12 09:33:00,
2013-05-12 05:43:00,54.0,48.0,29.80,WSW,240,1.0,0.0,79,-99.99,,,-99.99,,2013-05-12 09:43:00,
2013-05-12 05:52:00,53.0,47.0,29.81,ESE,117,1.0,0.0,79,-99.99,,,-99.99,,2013-05-12 09:52:00,
2013-05-12 06:03:00,53.0,47.0,29.81,ESE,117,1.0,0.0,79,-99.99,,,-99.99,,2013-05-12 10:03:00,
2013-05-12 06:12:00,53.0,47.0,29.81,ESE,117,1.0,0.0,79,-99.99,,,-99.99,,2013-05-12 10:12:00,
2013-05-12 06:23:00,53.0,47.0,29.81,ENE,77,0.0,0.0,81,-99.99,,,-99.99,,2013-05-12 10:23:00,
2013-05-12 06:33:00,54.0,48.0,29.82,East,99,0.0,0.0,81,-99.99,,,-99.99,,2013-05-12 10:33:00,
2013-05-12 06:42:00,54.0,48.0,29.82,East,99,0.0,0.0,81,-99.99,,,-99.99,,2013-05-12 10:42:00,
2013-05-12 06:52:00,54.0,48.0,29.83,East,84,0.0,0.0,81,-99.99,,,-99.99,,2013-05-12 10:52:00,
2013-05-12 07:02:00,54.0,48.0,29.83,NE,51,0.0,0.0,81,-99.99,,,-99.99,,2013-05-12 11:02:00,
2013-05-12 07:12:00,54.0,48.0,29.83,NE,51,0.0,0.0,81,-99.99,,,-99.99,,2013-05-12 11:12:00,
2013-05-12 07:22:00,54.0,47.0,29.86,SSW,195,1.0,0.0,76,-99.99,,,-99.99,,2013-05-12 11:22:00,
2013-05-12 07:32:00,54.0,46.0,29.86,ESE,118,2.0,0.0,73,-99.99,,,-99.99,,2013-05-12 11:32:00,
2013-05-12 07:42:00,54.0,46.0,29.86,ESE,118,2.0,0.0,73,-99.99,,,-99.99,,2013-05-12 11:42:00,
2013-05-12 07:52:00,54.0,42.0,29.87,SSE,149,2.0,0.0,63,-99.99,,,-99.99,,2013-05-12 11:52:00,
2013-05-12 08:02:00,54.0,41.0,29.88,NNE,20,5.0,13.0,62,-99.99,,,-99.99,,2013-05-12 12:02:00,
2013-05-12 08:11:00,54.0,41.0,29.88,NNE,20,5.0,13.0,62,-99.99,,,-99.99,,2013-05-12 12:11:00,
2013-05-12 08:22:00,53.0,39.0,29.88,NE,43,4.0,0.0,58,-99.99,,,-99.99,,2013-05-12 12:22:00,
2013-05-12 08:32:00,53.0,38.0,29.88,East,96,6.0,0.0,56,-99.99,,,-99.99,,2013-05-12 12:32:00,
2013-05-12 08:42:00,53.0,38.0,29.88,East,96,6.0,0.0,56,-99.99,,,-99.99,,2013-05-12 12:42:00,
2013-05-12 08:52:00,53.0,37.0,29.89,ESE,106,3.0,0.0,54,-99.99,,,-99.99,,2013-05-12 12:52:00,
2013-05-12 09:02:00,53.0,36.0,29.90,NE,49,3.0,0.0,52,-99.99,,,-99.99,,2013-05-12 13:02:00,
2013-05-12 09:11:00,53.0,36.0,29.90,NE,49,3.0,0.0,52,-99.99,,,-99.99,,2013-05-12 13:11:00,
2013-05-12 09:21:00,53.0,36.0,29.90,NE,49,3.0,0.0,52,-99.99,,,-99.99,,2013-05-12 13:21:00,
2013-05-12 09:32:00,53.0,36.0,29.90,NE,49,3.0,0.0,52,-99.99,,,-99.99,,2013-05-12 13:32:00,
2013-05-12 09:52:00,54.0,36.0,29.90,SE,141,4.0,0.0,51,-99.99,,,-99.99,,2013-05-12 13:52:00,
2013-05-12 10:02:00,54.0,36.0,29.90,SE,141,4.0,0.0,51,-99.99,,,-99.99,,2013-05-12 14:02:00,
2013-05-12 10:11:00,54.0,36.0,29.90,SE,141,4.0,0.0,51,-99.99,,,-99.99,,2013-05-12 14:11:00,
2013-05-12 10:21:00,55.0,37.0,29.90,SSE,149,4.0,0.0,50,-99.99,,,-99.99,,2013-05-12 14:21:00,
2013-05-12 10:32:00,55.0,37.0,29.90,SSE,149,4.0,0.0,50,-99.99,,,-99.99,,2013-05-12 14:32:00,
2013-05-12 10:42:00,56.0,37.0,29.89,East,94,3.0,12.0,49,-99.99,,,-99.99,,2013-05-12 14:42:00,
2013-05-12 10:52:00,56.0,37.0,29.89,East,94,3.0,12.0,49,-99.99,,,-99.99,,2013-05-12 14:52:00,
2013-05-12 11:01:00,56.0,37.0,29.89,East,94,3.0,12.0,49,-99.99,,,-99.99,,2013-05-12 15:01:00,
2013-05-12 11:11:00,56.0,37.0,29.89,East,94,3.0,12.0,49,-99.99,,,-99.99,,2013-05-12 15:11:00,
2013-05-12 11:21:00,56.0,37.0,29.89,East,94,3.0,12.0,49,-99.99,,,-99.99,,2013-05-12 15:21:00,
2013-05-12 11:34:00,56.0,35.0,29.90,SSE,164,2.0,0.0,45,-99.99,,,-99.99,,2013-05-12 15:34:00,
2013-05-12 11:42:00,56.0,35.0,29.90,SSE,164,2.0,0.0,45,-99.99,,,-99.99,,2013-05-12 15:42:00,
2013-05-12 11:53:00,57.0,36.0,29.91,SSW,208,3.0,0.0,46,-99.99,,,-99.99,,2013-05-12 15:53:00,
2013-05-12 12:02:00,57.0,36.0,29.91,ESE,115,5.0,0.0,46,-99.99,,,-99.99,,2013-05-12 16:02:00,
2013-05-12 12:12:00,58.0,37.0,29.90,SE,124,9.0,0.0,46,-99.99,,,-99.99,,2013-05-12 16:12:00,
2013-05-12 12:13:00,57.0,36.0,29.91,ESE,115,5.0,0.0,46,-99.99,,,-99.99,,2013-05-12 16:13:00,
2013-05-12 12:23:00,57.0,36.0,29.91,ESE,115,5.0,0.0,46,-99.99,,,-99.99,,2013-05-12 16:23:00,
2013-05-12 12:33:00,58.0,37.0,29.90,SE,124,9.0,0.0,46,-99.99,,,-99.99,,2013-05-12 16:33:00,
2013-05-12 12:42:00,58.0,37.0,29.90,SE,124,9.0,0.0,46,-99.99,,,-99.99,,2013-05-12 16:42:00,
2013-05-12 12:53:00,58.0,37.0,29.90,SE,124,9.0,0.0,46,-99.99,,,-99.99,,2013-05-12 16:53:00,
2013-05-12 13:02:00,58.0,37.0,29.90,SE,124,9.0,0.0,46,-99.99,,,-99.99,,2013-05-12 17:02:00,
2013-05-12 13:22:00,60.0,36.0,29.91,NNE,28,4.0,13.0,40,-99.99,,,-99.99,,2013-05-12 17:22:00,
2013-05-12 13:32:00,60.0,34.0,29.91,SE,134,4.0,0.0,38,-99.99,,,-99.99,,2013-05-12 17:32:00,
2013-05-12 13:42:00,60.0,34.0,29.91,SE,134,4.0,0.0,38,-99.99,,,-99.99,,2013-05-12 17:42:00,
2013-05-12 13:52:00,61.0,34.0,29.91,ESE,111,2.0,0.0,36,-99.99,,,-99.99,,2013-05-12 17:52:00,
2013-05-12 14:01:00,61.0,34.0,29.91,ESE,111,2.0,0.0,36,-99.99,,,-99.99,,2013-05-12 18:01:00,
2013-05-12 14:12:00,61.0,34.0,29.91,ESE,111,2.0,0.0,36,-99.99,,,-99.99,,2013-05-12 18:12:00,
2013-05-12 14:22:00,61.0,33.0,29.91,ENE,77,4.0,0.0,35,-99.99,,,-99.99,,2013-05-12 18:22:00,
2013-05-12 14:32:00,62.0,34.0,29.91,East,99,6.0,0.0,35,-99.99,,,-99.99,,2013-05-12 18:32:00,
2013-05-12 14:42:00,62.0,34.0,29.91,East,99,6.0,0.0,35,-99.99,,,-99.99,,2013-05-12 18:42:00,
2013-05-12 14:52:00,63.0,36.0,29.92,South,191,3.0,0.0,36,-99.99,,,-99.99,,2013-05-12 18:52:00,
2013-05-12 15:01:00,62.0,33.0,29.92,ENE,62,6.0,0.0,34,-99.99,,,-99.99,,2013-05-12 19:01:00,
2013-05-12 15:11:00,62.0,33.0,29.92,ENE,62,6.0,0.0,34,-99.99,,,-99.99,,2013-05-12 19:11:00,
2013-05-12 15:22:00,62.0,32.0,29.92,SSW,198,1.0,0.0,32,-99.99,,,-99.99,,2013-05-12 19:22:00,
2013-05-12 15:32:00,63.0,33.0,29.92,SE,130,3.0,0.0,33,-99.99,,,-99.99,,2013-05-12 19:32:00,
2013-05-12 15:42:00,62.0,32.0,29.91,SSE,163,1.0,0.0,32,-99.99,,,-99.99,,2013-05-12 19:42:00,
2013-05-12 15:52:00,62.0,32.0,29.91,SSE,163,1.0,0.0,32,-99.99,,,-99.99,,2013-05-12 19:52:00,
2013-05-12 16:02:00,62.0,32.0,29.91,SSE,163,1.0,0.0,32,-99.99,,,-99.99,,2013-05-12 20:02:00,
2013-05-12 16:11:00,62.0,32.0,29.91,SSE,163,1.0,0.0,32,-99.99,,,-99.99,,2013-05-12 20:11:00,
2013-05-12 16:22:00,63.0,33.0,29.91,ESE,102,7.0,0.0,33,-99.99,,,-99.99,,2013-05-12 20:22:00,
2013-05-12 16:32:00,63.0,34.0,29.92,ENE,65,3.0,0.0,34,-99.99,,,-99.99,,2013-05-12 20:32:00,
2013-05-12 16:42:00,63.0,34.0,29.92,ENE,65,3.0,0.0,34,-99.99,,,-99.99,,2013-05-12 20:42:00,
2013-05-12 16:52:00,64.0,34.0,29.92,ENE,74,2.0,0.0,33,-99.99,,,-99.99,,2013-05-12 20:52:00,
2013-05-12 17:01:00,64.0,34.0,29.92,ENE,74,2.0,0.0,33,-99.99,,,-99.99,,2013-05-12 21:01:00,
2013-05-12 17:11:00,64.0,34.0,29.92,ENE,74,2.0,0.0,33,-99.99,,,-99.99,,2013-05-12 21:11:00,
2013-05-12 17:21:00,64.0,34.0,29.92,South,181,1.0,0.0,33,-99.99,,,-99.99,,2013-05-12 21:21:00,
2013-05-12 17:33:00,63.0,33.0,29.93,SE,127,4.0,0.0,33,-99.99,,,-99.99,,2013-05-12 21:33:00,
2013-05-12 17:42:00,63.0,33.0,29.93,SE,127,4.0,0.0,33,-99.99,,,-99.99,,2013-05-12 21:42:00,
2013-05-12 17:53:00,63.0,35.0,29.93,South,174,1.0,0.0,35,-99.99,,,-99.99,,2013-05-12 21:53:00,
2013-05-12 18:02:00,63.0,31.0,29.94,ESE,105,4.0,0.0,30,-99.99,,,-99.99,,2013-05-12 22:02:00,
2013-05-12 18:12:00,63.0,31.0,29.94,ESE,105,4.0,0.0,30,-99.99,,,-99.99,,2013-05-12 22:12:00,
2013-05-12 18:23:00,63.0,33.0,29.94,ENE,63,12.0,12.0,33,-99.99,,,-99.99,,2013-05-12 22:23:00,
2013-05-12 18:33:00,63.0,33.0,29.93,East,101,1.0,12.0,33,-99.99,,,-99.99,,2013-05-12 22:33:00,
2013-05-12 18:42:00,63.0,33.0,29.93,East,101,1.0,12.0,33,-99.99,,,-99.99,,2013-05-12 22:42:00,
2013-05-12 18:52:00,62.0,33.0,29.94,East,89,2.0,0.0,33,-99.99,,,-99.99,,2013-05-12 22:52:00,
2013-05-12 19:02:00,61.0,31.0,29.94,NE,53,3.0,0.0,32,-99.99,,,-99.99,,2013-05-12 23:02:00,
2013-05-12 19:12:00,61.0,31.0,29.94,NE,53,3.0,0.0,32,-99.99,,,-99.99,,2013-05-12 23:12:00,
2013-05-12 19:22:00,61.0,31.0,29.94,NE,53,3.0,0.0,32,-99.99,,,-99.99,,2013-05-12 23:22:00,
2013-05-12 19:32:00,59.0,32.0,29.96,SW,232,3.0,0.0,36,-99.99,,,-99.99,,2013-05-12 23:32:00,
2013-05-12 19:42:00,59.0,32.0,29.96,SW,232,3.0,0.0,36,-99.99,,,-99.99,,2013-05-12 23:42:00,
2013-05-12 19:52:00,58.0,32.0,29.97,East,83,2.0,0.0,37,-99.99,,,-99.99,,2013-05-12 23:52:00,
2013-05-12 20:01:00,57.0,33.0,29.97,SE,132,1.0,0.0,40,-99.99,,,-99.99,,2013-05-13 00:01:00,
2013-05-12 20:11:00,57.0,33.0,29.97,SE,132,1.0,0.0,40,-99.99,,,-99.99,,2013-05-13 00:11:00,
2013-05-12 20:22:00,56.0,31.0,29.98,SE,145,2.0,0.0,38,-99.99,,,-99.99,,2013-05-13 00:22:00,
2013-05-12 20:32:00,56.0,31.0,29.98,SE,145,2.0,0.0,38,-99.99,,,-99.99,,2013-05-13 00:32:00,
2013-05-12 20:42:00,56.0,31.0,29.98,SE,145,2.0,0.0,38,-99.99,,,-99.99,,2013-05-13 00:42:00,
2013-05-12 20:51:00,54.0,33.0,29.98,SSE,158,0.0,0.0,44,-99.99,,,-99.99,,2013-05-13 00:51:00,
2013-05-12 21:01:00,54.0,33.0,29.98,SSE,158,0.0,0.0,44,-99.99,,,-99.99,,2013-05-13 01:01:00,
2013-05-12 21:11:00,54.0,33.0,29.98,SSE,158,0.0,0.0,44,-99.99,,,-99.99,,2013-05-13 01:11:00,
2013-05-12 21:22:00,53.0,32.0,30.00,SE,132,0.0,0.0,44,-99.99,,,-99.99,,2013-05-13 01:22:00,
2013-05-12 21:32:00,53.0,32.0,30.00,SE,132,0.0,0.0,44,-99.99,,,-99.99,,2013-05-13 01:32:00,
2013-05-12 21:42:00,53.0,32.0,30.00,SE,132,0.0,0.0,44,-99.99,,,-99.99,,2013-05-13 01:42:00,
2013-05-12 21:52:00,50.0,34.0,30.01,SE,132,0.0,0.0,54,-99.99,,,-99.99,,2013-05-13 01:52:00,
2013-05-12 22:02:00,50.0,34.0,30.01,SE,132,0.0,0.0,54,-99.99,,,-99.99,,2013-05-13 02:02:00,
2013-05-12 22:11:00,50.0,34.0,30.01,SE,132,0.0,0.0,54,-99.99,,,-99.99,,2013-05-13 02:11:00,
2013-05-12 22:21:00,49.0,34.0,30.02,SE,132,0.0,0.0,56,-99.99,,,-99.99,,2013-05-13 02:21:00,
2013-05-12 22:32:00,49.0,35.0,30.02,SE,126,0.0,0.0,58,-99.99,,,-99.99,,2013-05-13 02:32:00,
2013-05-12 22:42:00,49.0,35.0,30.02,SE,126,0.0,0.0,58,-99.99,,,-99.99,,2013-05-13 02:42:00,
2013-05-12 22:52:00,51.0,34.0,30.02,East,86,0.0,0.0,52,-99.99,,,-99.99,,2013-05-13 02:52:00,
2013-05-12 23:02:00,50.0,34.0,30.03,East,85,0.0,0.0,55,-99.99,,,-99.99,,2013-05-13 03:02:00,
2013-05-12 23:11:00,50.0,34.0,30.03,East,85,0.0,0.0,55,-99.99,,,-99.99,,2013-05-13 03:11:00,
2013-05-12 23:21:00,49.0,35.0,30.03,East,84,0.0,0.0,58,-99.99,,,-99.99,,2013-05-13 03:21:00,
2013-05-12 23:32:00,50.0,34.0,30.03,ESE,109,1.0,0.0,53,-99.99,,,-99.99,,2013-05-13 03:32:00,
2013-05-12 23:42:00,50.0,34.0,30.03,ESE,109,1.0,0.0,53,-99.99,,,-99.99,,2013-05-13 03:42:00,
2013-05-12 23:53:00,50.0,33.0,30.03,SE,135,0.0,0.0,52,-99.99,,,-99.99,,2013-05-13 03:53:00,